User: anonymous   Login
Location: Caltech
(34.1382°N, 118.1253°W)
Time: 21:27:12
(UTC-07:00)
Language:

Sapphire - Orbit

View from above orbital plane
View from above orbital plane
View from above satellite
View from above satellite

Ground track
Ground track

The orbit data is extracted from the following two-line orbital elements,

1 26932U 01043D   15088.15644996  .00000181  00000-0  10186-3 0  9995
2 26932 067.0579 024.7881 0007985 255.6693 104.3521 14.30122882704393
Epoch (UTC): 29 March 2015 03:45:17
Eccentricity: 0.0007985
inclination: 67.0579°
perigee height: 785 km
apogee height: 797 km
right ascension of ascending node: 24.7881°
argument of perigee: 255.6693°
revolutions per day: 14.30122882
mean anomaly at epoch: 104.3521°
orbit number at epoch: 70439

The dashed part of the orbit path shows where the satellite is in the earth's shadow,  

DLR